Location: Alafon
(8.4500°N, 4.2333°E)
Time: 08:44:29
(UTC+00:00)

N. Korean satellite - Pass Details

Date: 27 June 2021
Orbit: 451 x 497 km, 97.2° (Epoch: 27 July)

Event Time Altitude Azimuth Distance (km) Brightness Sun altitude
Rises 04:33:04 0° 16° (NNE) 2,571 10.9 -13.1°
Reaches altitude 10° 04:35:10 10° 20° (NNE) 1,692 10.0 -12.6°
Maximum altitude 04:38:46 60° 101° (E) 574 7.2 -11.8°
Drops below altitude 10° 04:42:22 10° 181° (S) 1,692 9.0 -11.0°
Sets 04:44:27 0° 185° (S) 2,572 9.9 -10.6°
